Погода в Селе имени Полины Осипенко

Россия / Хабаровский край     52°25′15″N   136°29′37″E
темп.,
°C
ветер,
м/с
пор.,
м/с
влажн.,
%
обл.,
%
осадки,
мм/ч
давл.,
гПа
погр.,
м
27 февраля, сб
сб2701:00−19ююв12921 0.0 103020
04:00−20ююв239722 0.0 102924
07:00−20ююв4998100 0.1 1029249
10:00−19ююв5895100 0.1 1028361
13:00−15ю4790100 0.0 1026476
16:00−13ююв4788100 0.1 1022561
19:00−13ююв4993100 0.1 1020511
22:00−14ююв41096100 1.4 1017562
28 февраля, вс
вс2801:00−14юв2795100 0.5 1014359
04:00−14вюв1296100 0.7 101138
07:00−17ссз129899 0.1 101326
10:00−14ссз2393100 0.1 1013234
13:00−11с2284100 0.1 1014481
16:00−11с3484100 0.1 1015434
19:00−16с238566 0.0 101832
22:00−20ссв489334 0.0 1021130
1 марта, пн
пн101:00−22с33734 0.0 102224
04:00−23з227526 0.0 102320
07:00−24з1275100 0.0 102421
10:00−22юз237699 0.0 1025150
13:00−17ююз466955 0.0 1023795
16:00−15юз466538 0.0 10231393
19:00−21зюз347060 0.0 102445
22:00−25ссз127330 0.0 102631
2 марта, вт
вт201:00−29юз01720 0.0 102719
04:00−31ююз11720 0.0 102720
07:00−31ююз33740 0.0 102825
10:00−26ю35760 0.0 1027210
13:00−21ю45780 0.0 1026436
16:00−17зюз6105627 0.0 10261935
19:00−22з237060 0.0 102627
22:00−25з236730 0.0 102833
3 марта, ср
ср301:00−28ю22740 0.0 102719
04:00−30ю22760 0.0 102719
07:00−31ю22810 0.0 102619
10:00−26ююв35870 0.0 1024252
13:00−21ю46850 0.0 1020439
16:00−17ююв368649 0.0 1016560
19:00−19юв2298100 0.0 101438
22:00−19в1197100 0.1 101221